Location: Stara Lesna
(49.1528°N, 20.2911°E)
Time: 19:03:50
(UTC+02:00)

Cosmos 1666 - Pass Details

Date: 13 July 2020
Orbit: 497 x 521 km, 82.5° (Epoch: 10 August)

Event Time Altitude Azimuth Distance (km) Brightness Sun altitude
Exits shadow 03:30:03 14° 207° (SSW) 1,490 4.4 -10.1°
Maximum altitude 03:33:10 54° 283° (WNW) 625 2.9 -9.8°
Drops below altitude 10° 03:36:53 10° 1° (N) 1,726 6.2 -9.4°
Sets 03:39:02 0° 6° (N) 2,612 7.3 -9.2°
